Weather History for Ann Arbor, MI

Change the Weather History Date:

Friday, January 31, 2014

  Actual Average Record
Temperature  
Mean Temperature 28 °F -  
Max Temperature 30 °F 29 °F 54 °F (2012)
Min Temperature 26 °F 12 °F 1 °F (2004)
Degree Days  
Heating Degree Days 37    
Moisture  
Dew Point 21 °F    
Average Humidity 75    
Maximum Humidity 92    
Minimum Humidity 69    
Precipitation  
Precipitation 0.00 in - - ()
Sea Level Pressure  
Sea Level Pressure 30.06 in    
Wind  
Wind Speed 7 mph (WSW)    
Max Wind Speed 10 mph    
Max Gust Speed -    
Visibility 9 miles    
Events Snow    
Averages and records for this station are not official NWS values.
T = Trace of Precipitation, MM = Missing Value Source: NWS Daily Summary

Daily Weather History Graph

Daily Weather History Graph

Search for Another Location

Airport:

Trip Planner

Search our weather history database for the weather conditions in past years. The results will help you decide how hot, cold, wet, or windy it might be!

Date:

Astronomy

Jan. 31, 2014 Rise Set
Actual Time 7:49 AM EST 5:48 PM EST
Civil Twilight 7:19 AM EST 6:17 PM EST
Nautical Twilight 6:45 AM EST 6:51 PM EST
Astronomical Twilight 6:12 AM EST 7:24 PM EST
Moon 7:56 AM EST (1/31) 7:13 PM EST (1/31)
Length of Visible Light 10h 58m
Length of Day
9h 58m
New Moon, 1% of the Moon is Illuminated
Jan 31
New Moon
Feb 6
First Quarter
Feb 14
Full
Feb 22
Last Quarter
Mar 1
New

Hourly Weather History & Observations

Time (EST) Temp. Windchill Dew Point Humidity Pressure Visibility Wind Dir Wind Speed Gust Speed Precip Events Conditions
12:53 AM 27.0 °F 18.0 °F 21.9 °F 81% 29.88 in 10.0 mi SW 9.2 mph - N/A   Overcast
1:53 AM 27.0 °F 19.5 °F 21.9 °F 81% 29.88 in 10.0 mi SW 6.9 mph - N/A   Overcast
2:53 AM 27.0 °F 21.6 °F 21.9 °F 81% 29.91 in 10.0 mi SSW 4.6 mph - N/A   Overcast
3:53 AM 28.0 °F 20.0 °F 21.9 °F 78% 29.92 in 10.0 mi SW 8.1 mph - N/A   Overcast
4:53 AM 28.0 °F 21.7 °F 21.0 °F 75% 29.93 in 10.0 mi SW 5.8 mph - N/A   Overcast
5:53 AM 28.9 °F 21.1 °F 19.9 °F 69% 29.96 in 10.0 mi SW 8.1 mph - N/A   Overcast
6:53 AM 28.9 °F 22.8 °F 19.9 °F 69% 30.00 in 10.0 mi SW 5.8 mph - N/A   Overcast
7:32 AM 28.4 °F 23.3 °F 19.4 °F 69% 29.99 in 10.0 mi WSW 4.6 mph - N/A   Overcast
7:53 AM 28.0 °F 22.8 °F 19.9 °F 72% 30.03 in 10.0 mi SW 4.6 mph - N/A   Overcast
8:53 AM 27.0 °F 21.6 °F 19.9 °F 75% 30.06 in 10.0 mi WSW 4.6 mph - N/A   Partly Cloudy
9:53 AM 28.9 °F 21.1 °F 21.0 °F 72% 30.09 in 10.0 mi WSW 8.1 mph - N/A   Partly Cloudy
10:14 AM 28.4 °F 21.2 °F 21.2 °F 74% 30.05 in 10.0 mi West 6.9 mph - N/A   Mostly Cloudy
10:34 AM 28.4 °F 22.2 °F 21.2 °F 74% 30.06 in 10.0 mi West 5.8 mph - N/A   Mostly Cloudy
10:53 AM 30.0 °F 22.4 °F 23.0 °F 75% 30.10 in 10.0 mi West 8.1 mph - N/A   Mostly Cloudy
11:53 AM 30.9 °F 22.8 °F 23.0 °F 72% 30.09 in 9.0 mi West 9.2 mph - 0.00 in   Partly Cloudy
12:53 PM 30.9 °F 23.5 °F 21.9 °F 69% 30.08 in 10.0 mi West 8.1 mph - N/A   Clear
1:53 PM 30.9 °F 22.8 °F 21.9 °F 69% 30.10 in 10.0 mi West 9.2 mph - N/A   Overcast
2:18 PM 30.2 °F 21.3 °F 21.2 °F 69% 30.07 in 10.0 mi West 10.4 mph - N/A   Mostly Cloudy
2:53 PM 30.9 °F 23.5 °F 21.9 °F 69% 30.10 in 10.0 mi West 8.1 mph - N/A   Scattered Clouds
3:53 PM 30.9 °F 24.3 °F 23.0 °F 72% 30.12 in 10.0 mi West 6.9 mph - N/A   Overcast
4:53 PM 30.0 °F 23.2 °F 21.9 °F 72% 30.12 in 10.0 mi West 6.9 mph - 0.00 in Snow Light Snow
5:53 PM 30.0 °F 22.4 °F 21.0 °F 69% 30.13 in 10.0 mi WSW 8.1 mph - 0.00 in   Overcast
6:53 PM 27.0 °F 21.6 °F 21.0 °F 78% 30.15 in 10.0 mi WSW 4.6 mph - N/A   Overcast
7:53 PM 28.0 °F 24.2 °F 19.9 °F 72% 30.14 in 10.0 mi SW 3.5 mph - N/A   Overcast
8:53 PM 26.1 °F 20.5 °F 19.0 °F 75% 30.15 in 10.0 mi WSW 4.6 mph - N/A   Partly Cloudy
9:53 PM 26.1 °F 21.9 °F 19.0 °F 75% 30.15 in 10.0 mi SSW 3.5 mph - N/A   Overcast
10:53 PM 27.0 °F 21.6 °F 23.0 °F 85% 30.14 in 5.0 mi SW 4.6 mph - 0.00 in Snow Light Snow
11:25 PM 26.6 °F 21.2 °F 23.0 °F 86% 30.12 in 2.0 mi WSW 4.6 mph - 0.00 in Snow Light Snow
11:53 PM 26.1 °F - 24.1 °F 92% 30.14 in 2.0 mi Calm Calm - 0.00 in Snow Light Snow